This is the latest recevied weather packets stored in our database for station/object KC0QBU-13. If no packets are shown the sender has not sent any weather packets the latest 10 day(s).
| Time | Temp. | Humidity | Pressure | Rain* | Wind** | Luminosity | Snow |
|---|---|---|---|---|---|---|---|
| 1777464604 | 7.22° C | 82% | 1020.9 hPa | 0 mm | - | - | - |
| 1777464004 | 7.22° C | 82% | 1020.8 hPa | 0 mm | - | - | - |
| 1777462204 | 7.22° C | 82% | 1020.4 hPa | 0 mm | - | - | - |
| 1777461903 | 7.22° C | 82% | 1020.1 hPa | 0 mm | - | - | - |
| 1777459804 | 7.78° C | 81% | 1019.5 hPa | 0 mm | - | - | - |
| 1777459504 | 7.78° C | 81% | 1019.5 hPa | 0 mm | - | - | - |
| 1777458004 | 7.78° C | 80% | 1019.3 hPa | 0 mm | - | - | - |
| 1777457404 | 7.78° C | 81% | 1019.1 hPa | 0 mm | - | - | - |
| 1777455904 | 7.78° C | 81% | 1018.9 hPa | 0 mm | - | - | - |
| 1777455303 | 7.78° C | 82% | 1019.1 hPa | 0 mm | - | - | - |
| 1777455004 | 7.78° C | 83% | 1019.1 hPa | 0 mm | - | - | - |
| 1777454703 | 7.22° C | 83% | 1019.1 hPa | 0 mm | - | - | - |
| 1777454404 | 7.22° C | 83% | 1019.1 hPa | 0 mm | - | - | - |
| 1777453203 | 7.22° C | 83% | 1019 hPa | 0 mm | - | - | - |
| 1777451104 | 7.78° C | 82% | 1018.6 hPa | 0 mm | - | - | - |
| 1777450204 | 7.78° C | 81% | 1018.4 hPa | 0 mm | - | - | - |
| 1777446903 | 8.33° C | 76% | 1018.8 hPa | 0 mm | - | - | - |
| 1777442403 | 8.89° C | 72% | 1018.4 hPa | 0 mm | - | - | - |
| 1777441204 | 9.44° C | 70% | 1018.5 hPa | 0 mm | - | - | - |
| 1777438804 | 10° C | 68% | 1018.5 hPa | 0 mm | - | - | - |
| 1777437004 | 10.56° C | 68% | 1018.5 hPa | 0 mm | - | - | - |
| 1777434903 | 11.11° C | 67% | 1018.7 hPa | 0 mm | - | - | - |
| 1777433104 | 12.22° C | 66% | 1018.1 hPa | 0 mm | - | - | - |
| 1777431604 | 13.33° C | 66% | 1017.8 hPa | 0 mm | - | - | - |
| 1777431003 | 13.33° C | 66% | 1017.6 hPa | 0 mm | - | - | - |
* Rain latest hour (hover to see other rain measurements)
** Current wind speed in m/s (hover to see current wind gust speed)